Powrót do katalogu

STARLINK-32704

AktywnyŁącznośćVLEO
NORAD 62826·PAYLOAD·🇺🇸 United States

Wystrzelony Jan 24, 2025 z Vandenberg Space Force Base

Loading…

Następne Przeloty (najbliższe 24 godziny)

TLE

ŚwieżeSource: CelesTrak SupGP

Epoka: Sep 14, 2026, 22:47 UTC

1 62826C 25018W   26257.94979167  .00068132  00000+0  92971-3 0  2571
2 62826  53.1453 136.3859 0004190 109.2377 194.5231 15.56823448    17

Śledź STARLINK-32704 w czasie rzeczywistym z AllMySat

Download on the App Store